Weather in Poselok sanatoriya Ozero Beloye

Russia / Moscow Oblast     55°15′23″N   39°59′08″E
temp.,
°C
wind,
m/s
gust,
m/s
humid.,
%
clouds,
%
prec.,
mm/h
press.,
hPa
HPBL,
m
25 february, thu
thu2500:00−15s4894100 0.4 1029418
03:00−14ssw4995100 0.9 1026418
06:00−12s51095100 1.8 1022379
09:00−8ssw51195100 3.6 1017453
12:00−1ssw3897100 2.6 1013344
15:00+2wnw412100100 3.3 1012461
18:00+2wnw41399100 0.0 1012463
21:00+1wnw31096100 0.0 1014365
26 february, fri
fri2600:00+1w379998 0.0 1013229
03:00+1wsw279999 0.0 1013207
06:00+2wsw3999100 0.3 1010280
09:00+2wsw41299100 1.4 1009437
12:00+3wsw412100100 0.2 1006417
15:00+3wsw514100100 0.7 1003586
18:00+3w51496100 0.8 1002885
21:00+2w61487100 0.8 1002965
27 february, sat
sat2700:00+1wnw6139193 0.0 1001959
03:00+1w6138896 0.1 1001974
06:000wnw6138887 0.0 1000940
09:000wnw6128994 0.0 1001846
12:00+1wnw5109297 0.0 1002880
15:00+1nw499899 0.2 1004656
18:000nw4898100 0.3 1006427
21:00−1nw389797 0.6 1007346
28 february, sun
sun2800:00−2nw389687 0.3 1008343
03:00−3nw389688 0.3 1010283
06:00−3nnw279788 0.2 1011266
09:00−3n369483 0.4 1013400
12:00−2n368794 0.1 1015721
15:00−2n368997 0.4 1016620
18:00−4n3891100 0.2 1018488
21:00−6n3109396 0.3 1021544
1 march, mon
mon100:00−6n289698 0.1 1023539
03:00−6nnw259699 0.2 1024228
06:00−8nw249496 0.0 102689
09:00−6nw369297 0.1 1027361
12:00−3wnw348286 0.0 1028642
15:00−2w468388 0.0 1027638
18:00−3w31091100 0.0 1027405
21:00−4w4109391 0.0 1026351